Regional Weather Roundup
Issued by NWS Cleveland, OH

Home | Current Version | Previous Version | Text Only | Print | Product List | Glossary Off
Versions: 1 2 3 4 5 6 7 8 9 10 11 12 13 14 15 16 17 18 19 20 21 22 23 24 25 26 27 28 29 30 31 32 33 34 35 36 37 38 39 40 41 42 43 44 45 46 47 48 49 50

000
ASUS41 KCLE 300410
RWRCLE
OHIO REGIONAL WEATHER ROUNDUP
NATIONAL WEATHER SERVICE WILMINGTON, OH
1200 AM EDT TUE SEP 30 2014

NOTE: "FAIR" INDICATES FEW OR NO CLOUDS BELOW 12,000 FEET WITH NO
SIGNIFICANT WEATHER AND/OR OBSTRUCTIONS TO VISIBILITY.

OHZ001>008-015>018-024>027-034-035-043-044-300500-
   NORTHWEST OHIO

CITY           SKY/WX    TMP DP  RH WIND       PRES   REMARKS
DEFIANCE       CLEAR     57  53  86 SW3       29.91F
FINDLAY        CLEAR     58  51  78 CALM      29.91F
TOLEDO EXPRESS CLEAR     56  54  93 CALM      29.89F
TOLEDO METCALF CLEAR     59  54  83 S6        29.90F
LIMA           CLEAR     59  52  77 S3        29.92F
$$

OHZ009>014-019>023-028>033-038-089-300500-
   NORTHEAST OHIO

CITY           SKY/WX    TMP DP  RH WIND       PRES   REMARKS
CLE-HOPKINS    CLEAR     57  54  89 CALM      29.92F
CLE-LAKEFRONT  CLEAR     64  55  72 SE9       29.89F
CUY CO. ARPT   NOT AVBL
LORAIN-ELYRIA  CLEAR     60  54  80 SW3       29.91F
ASHTABULA      CLEAR     52  50  93 CALM      29.92S FOG
AKRON-CANTON   CLEAR     59  52  77 CALM      29.93S
WOOSTER        CLEAR     53  49  86 CALM      29.93F
MANSFIELD      CLEAR     55  53  93 S3        29.93F
YOUNGSTOWN     CLEAR     54  53  97 CALM      29.92F
$$

OHZ042-051>053-060>062-070>072-077>081-300500-
  SOUTHWEST OHIO

CITY           SKY/WX    TMP DP  RH WIND       PRES   REMARKS
CINC-COVINGTON CLEAR     61  51  70 CALM      29.94F
CINC-LUNKEN    CLEAR     56  54  93 CALM      29.94F
HAMILTON       CLEAR     53  51  93 CALM      29.95S
DAYTON         CLEAR     65  49  56 NW6       29.95F
WRIGHT-PAT AFB CLEAR     56  51  83 CALM      29.94S
DAYTON GENERAL CLEAR     62  50  64 CALM      29.93F
WILMINGTON     CLEAR     56  50  80 CALM      29.94F
$$

OHZ036-037-039>041-045>050-054>059-063>069-073>076-082>088-300500-
  CENTRAL AND SOUTHEAST OHIO

CITY           SKY/WX    TMP DP  RH WIND       PRES   REMARKS
COLUMBUS       CLEAR     59  52  77 CALM      29.92S
OSU AIRPORT    CLEAR     58  51  78 W3        29.92F
BOLTON FIELD   CLEAR     54  50  85 CALM      29.94S
RICKENBACK AFB CLEAR     58  51  78 CALM      29.92S
NEWARK         CLEAR     52  50  93 CALM      29.92F FOG
MARION         CLEAR     55  48  77 CALM      29.93S
LANCASTER      CLEAR     52  49  89 CALM      29.93S
ZANESVILLE     CLEAR     56  53  90 CALM      29.92S
NEW PHILLY     CLEAR     55  55 100 CALM      29.93F FOG
$$


USA.gov is the U.S. government's official web portal to all federal, state and local government web resources and services.